Atlantic City, NJ

5:49 AM EDT on May 25, 2018 (GMT -0400)
Atlantic City International

Weather History for KACY - June, 2013

Change the Weather History Date:

Saturday, June 1, 2013

  Actual Average Record
Temperature  
Mean Temperature 78 °F 66 °F  
Max Temperature 89 °F 76 °F 97 °F (1895)
Min Temperature 66 °F 56 °F 37 °F (1967)
Degree Days  
Heating Degree Days 0 2  
Month to date heating degree days 0 2  
Since 1 June heating degree days 0 2  
Since 1 July heating degree days 4830 4880  
Cooling Degree Days 13 4  
Month to date cooling degree days 13 4  
Year to date cooling degree days 107 68  
Since 1 June cooling degree days 13 4  
Growing Degree Days 28 (Base 50)    
Moisture  
Dew Point 65 °F    
Average Humidity 67    
Maximum Humidity 87    
Minimum Humidity 46    
Precipitation  
Precipitation 0.00 in 0.11 in 2.22 in (2015)
Month to date precipitation 0.00 0.11  
Year to date precipitation 17.56 17.39  
Snow  
Snow 0.00 in 0.00 in 0.00 in ()
Month to date snowfall 0.0 0.0  
Since 1 June snowfall 0.0 0.0  
Since 1 July snowfall 14.6 16.5  
Snow Depth 0.00 in    
Sea Level Pressure  
Sea Level Pressure 30.02 in    
Wind  
Wind Speed 10 mph (SSW)    
Max Wind Speed 21 mph    
Max Gust Speed 27 mph    
Visibility 10 miles    
Events      
T = Trace of Precipitation, MM = Missing Value Source: NWS Daily Summary

Daily Weather History Graph

Daily Weather History Graph

Search for Another Location

Airport or City:

Astronomy

Jun. 01, 2013 Rise Set
Actual Time 5:33 AM EDT 8:19 PM EDT
Civil Twilight 5:01 AM EDT 8:51 PM EDT
Nautical Twilight 4:21 AM EDT 9:31 PM EDT
Astronomical Twilight 3:36 AM EDT 10:16 PM EDT
Moon 1:25 AM EDT (6/1) 1:48 PM EDT (6/1)
Length of Visible Light 15h 50m
Length of Day
14h 46m
Last Quarter, 41% of the Moon is Illuminated
Jun 1
Last Quarter
Jun 8
New
Jun 16
First Quarter
Jun 23
Full
Jun 30
Last Quarter

Hourly Weather History & Observations

Time (EDT) Temp. Heat Index Dew Point Humidity Pressure Visibility Wind Dir Wind Speed Gust Speed Precip Events Conditions
12:54 AM 70.0 °F - 63.0 °F 78% 30.07 in 10.0 mi SSW 5.8 mph - N/A   Clear
1:54 AM 69.1 °F - 63.0 °F 81% 30.06 in 10.0 mi South 4.6 mph - N/A   Clear
2:54 AM 66.9 °F - 62.1 °F 84% 30.05 in 10.0 mi Calm Calm - N/A   Clear
3:54 AM 66.0 °F - 62.1 °F 87% 30.05 in 10.0 mi SSW 5.8 mph - N/A   Clear
4:54 AM 66.9 °F - 63.0 °F 87% 30.06 in 10.0 mi SSW 6.9 mph - N/A   Clear
5:54 AM 68.0 °F - 64.9 °F 90% 30.06 in 10.0 mi SSW 6.9 mph - N/A   Clear
6:54 AM 71.1 °F - 66.0 °F 84% 30.06 in 10.0 mi SW 8.1 mph - N/A   Clear
7:54 AM 75.9 °F - 66.9 °F 74% 30.07 in 10.0 mi SW 10.4 mph - N/A   Clear
8:54 AM 80.1 °F 82.1 °F 66.0 °F 62% 30.07 in 10.0 mi SW 9.2 mph - N/A   Clear
9:54 AM 82.9 °F 85.0 °F 66.0 °F 56% 30.05 in 10.0 mi SW 11.5 mph - N/A   Clear
10:54 AM 84.9 °F 87.6 °F 66.9 °F 55% 30.04 in 10.0 mi SSW 13.8 mph 19.6 mph N/A   Clear
11:54 AM 87.1 °F 88.9 °F 64.9 °F 48% 30.04 in 10.0 mi SW 13.8 mph 24.2 mph N/A   Clear
12:54 PM 88.0 °F 90.3 °F 66.0 °F 48% 30.02 in 10.0 mi WSW 15.0 mph - N/A   Scattered Clouds
1:54 PM 86.0 °F 89.4 °F 68.0 °F 55% 30.01 in 10.0 mi SSE 13.8 mph - N/A   Scattered Clouds
2:54 PM 84.0 °F 86.3 °F 66.0 °F 55% 29.99 in 10.0 mi South 16.1 mph 23.0 mph N/A   Clear
3:54 PM 82.9 °F 85.0 °F 66.0 °F 56% 29.99 in 10.0 mi South 10.4 mph 21.9 mph N/A   Clear
4:54 PM 82.9 °F 85.0 °F 66.0 °F 56% 29.99 in 10.0 mi South 10.4 mph 20.7 mph N/A   Clear
5:54 PM 82.0 °F 84.1 °F 66.0 °F 58% 29.97 in 10.0 mi South 12.7 mph 23.0 mph N/A   Clear
6:54 PM 78.1 °F - 64.9 °F 64% 29.97 in 10.0 mi South 11.5 mph 18.4 mph N/A   Clear
7:54 PM 75.9 °F - 64.9 °F 69% 29.97 in 10.0 mi South 12.7 mph - N/A   Clear
8:54 PM 73.9 °F - 64.9 °F 73% 29.97 in 10.0 mi South 11.5 mph - N/A   Clear
9:54 PM 73.9 °F - 64.0 °F 71% 29.99 in 10.0 mi South 12.7 mph - N/A   Clear
10:54 PM 71.1 °F - 64.0 °F 78% 29.98 in 10.0 mi SSW 10.4 mph - N/A   Clear
11:54 PM 68.0 °F - 63.0 °F 84% 29.97 in 10.0 mi South 9.2 mph - N/A   Clear